Location: Sungai Anya
(2.6167°N, 114.0500°E)
Time: 10:24:43
(UTC+00:00)

FENGYUN 1C DEB - Visible Passes

Search period start: 17 August 2022 00:00
Search period end: 27 August 2022 00:00
Orbit: 641 x 945 km, 98.3° (Epoch: 16 August)

Date Brightness Start Highest point End Pass type
(mag) Time Alt. Az. Time Alt. Az. Time Alt. Az.
17 Aug ? 11:29:26 10° S 11:33:43 44° WSW 11:38:16 10° NNW visible
18 Aug ? 11:00:38 10° SSE 11:05:09 74° ENE 11:09:59 10° N visible
18 Aug ? 21:58:07 10° ENE 22:00:40 13° E 22:03:08 10° SE visible
19 Aug ? 12:14:16 10° SW 12:16:06 12° W 12:17:59 10° WNW visible
20 Aug ? 11:43:30 10° SSW 11:47:29 29° W 11:51:41 10° NW visible
21 Aug ? 11:14:18 10° S 11:18:53 72° WSW 11:23:49 10° NNW visible
22 Aug ? 10:45:53 10° SSE 10:50:22 47° ENE 10:55:09 10° N visible
23 Aug ? 11:57:50 10° SSW 12:01:14 20° W 12:04:49 10° NW visible
24 Aug ? 11:28:08 10° S 11:32:38 47° W 11:37:28 10° NNW visible
25 Aug ? 10:59:21 10° SSE 11:04:04 74° ENE 11:09:11 10° N visible
25 Aug ? 21:57:44 10° ENE 21:59:46 12° E 22:01:44 10° ESE visible
26 Aug ? 12:12:40 10° SW 12:15:01 14° W 12:17:26 10° WNW visible
